Location: Howard City Library
(37.4684°N, 96.2639°W)
Time: 18:24:35
(UTC+00:00)

Cosmos 1500 Rocket - Pass Details

Date: 18 February 2020
Orbit: 602 x 632 km, 82.5° (Epoch: 29 March)

Event Time Altitude Azimuth Distance (km) Brightness Sun altitude
Rises 11:42:52 0° 349° (N) 2,918 6.9 -18.2°
Reaches altitude 10° 11:45:07 10° 347° (NNW) 2,002 6.0 -17.7°
Maximum altitude 11:49:31 67° 265° (W) 673 3.4 -16.9°
Drops below altitude 10° 11:53:51 10° 183° (S) 1,969 6.1 -16.0°
Sets 11:56:03 0° 181° (S) 2,864 7.0 -15.6°
